TimeMST,TemperatureF,Dew PointF,Humidity,Sea Level PressureIn,VisibilityMPH,Wind Direction,Wind SpeedMPH,Gust SpeedMPH,PrecipitationIn,Events,Conditions,WindDirDegrees,DateUTC
12:55 AM,34.2,23.2,64,29.93,10.0,NNW,8.1,-,N/A,,Partly Cloudy,340,2013-02-04 07:55:00
1:55 AM,28.9,21.4,73,29.94,10.0,NW,5.8,-,N/A,,Clear,320,2013-02-04 08:55:00
3:55 AM,26.2,20.3,78,29.93,10.0,Calm,Calm,-,N/A,,Clear,0,2013-02-04 10:55:00
4:55 AM,27.5,20.7,75,29.93,10.0,Calm,Calm,-,N/A,,Clear,0,2013-02-04 11:55:00
5:55 AM,28.0,19.4,70,29.93,10.0,SW,3.5,-,N/A,,Clear,230,2013-02-04 12:55:00
6:55 AM,29.1,19.9,69,29.91,10.0,South,4.6,-,N/A,,Overcast,190,2013-02-04 13:55:00
7:55 AM,29.7,23.2,77,29.91,10.0,South,8.1,-,N/A,,Overcast,170,2013-02-04 14:55:00
8:55 AM,31.3,23.9,74,29.89,10.0,SSW,5.8,-,N/A,,Mostly Cloudy,200,2013-02-04 15:55:00
9:55 AM,37.6,24.3,59,29.87,10.0,SW,4.6,-,N/A,,Partly Cloudy,230,2013-02-04 16:55:00
10:55 AM,43.0,22.6,45,29.85,10.0,Calm,Calm,-,N/A,,Mostly Cloudy,0,2013-02-04 17:55:00
11:55 AM,45.9,22.6,40,29.82,10.0,Calm,Calm,-,N/A,,Overcast,0,2013-02-04 18:55:00
12:55 PM,45.5,24.3,43,29.81,10.0,North,15.0,-,N/A,,Overcast,360,2013-02-04 19:55:00
1:55 PM,47.1,21.9,37,29.81,10.0,NNW,20.7,27.6,N/A,,Overcast,330,2013-02-04 20:55:00
2:55 PM,46.9,23.5,40,29.81,10.0,NNW,23.0,31.1,N/A,,Overcast,330,2013-02-04 21:55:00
3:55 PM,45.1,24.3,44,29.83,10.0,NNW,18.4,-,N/A,,Overcast,330,2013-02-04 22:55:00
4:55 PM,44.1,25.2,47,29.83,10.0,NNW,17.3,-,N/A,,Overcast,330,2013-02-04 23:55:00
5:55 PM,39.7,25.7,57,29.85,10.0,NW,9.2,-,N/A,,Overcast,320,2013-02-05 00:55:00
6:55 PM,39.0,25.2,58,29.86,10.0,NW,5.8,-,N/A,,Overcast,310,2013-02-05 01:55:00
7:55 PM,36.1,23.7,61,29.87,10.0,WSW,6.9,-,N/A,,Scattered Clouds,250,2013-02-05 02:55:00
8:55 PM,33.6,23.5,67,29.87,10.0,WSW,8.1,-,N/A,,Mostly Cloudy,250,2013-02-05 03:55:00
9:55 PM,36.1,23.4,60,29.84,10.0,WSW,8.1,-,N/A,,Overcast,250,2013-02-05 04:55:00
10:55 PM,35.6,24.4,64,29.84,10.0,NW,5.8,-,N/A,,Overcast,310,2013-02-05 05:55:00
11:55 PM,42.4,25.7,52,29.85,10.0,NNW,19.6,26.5,N/A,,Overcast,330,2013-02-05 06:55:00